Location: Sears
(37.7625°N, 100.1060°W)
Time: 12:02:51
(UTC+00:00)

Envisat - Pass Details

Date: 08 August 2021
Orbit: 764 x 766 km, 98.2° (Epoch: 22 September)

Event Time Altitude Azimuth Distance (km) Brightness Sun altitude
Rises 10:27:12 0° 39° (NE) 3,237 7.8 -15.3°
Reaches altitude 10° 10:31:47 10° 77° (ENE) 2,302 6.6 -14.6°
Maximum altitude 10:32:50 11° 89° (E) 2,258 6.3 -14.4°
Drops below altitude 10° 10:33:55 10° 102° (ESE) 2,299 6.1 -14.2°
Sets 10:38:26 0° 140° (SE) 3,217 6.3 -13.5°
